Location: Luxembourg
(49.6117°N, 6.1300°E)
Time: 14:06:46
(UTC+02:00)

N. Korean satellite - Pass Details

Date: 29 January 2019
Orbit: 457 x 508 km, 97.2° (Epoch: 21 April)

Event Time Altitude Azimuth Distance (km) Brightness Sun altitude
Rises 06:51:26 0° 14° (NNE) 2,611 10.3 -13.2°
Reaches altitude 10° 06:53:33 10° 16° (NNE) 1,714 9.4 -12.8°
Maximum altitude 06:57:14 74° 102° (ESE) 519 6.8 -12.2°
Drops below altitude 10° 07:00:50 10° 188° (S) 1,671 9.4 -11.7°
Sets 07:02:52 0° 190° (S) 2,537 10.3 -11.3°
